Location: Newark
(42.8481°N, 0.4872°E)
Time: 08:41:50
(UTC+00:00)

Transit 2A Rocket - Pass Details

Date: 31 October 2020
Orbit: 588 x 914 km, 66.7° (Epoch: 29 November)

Event Time Altitude Azimuth Distance (km) Brightness Sun altitude
Rises 10:20:40 0° 250° (WSW) 3,540 8.4 29.9°
Reaches altitude 10° 10:23:44 10° 264° (W) 2,590 7.7 30.1°
Maximum altitude 10:28:32 24° 317° (NW) 1,758 6.6 30.4°
Drops below altitude 10° 10:33:12 10° 10° (N) 2,498 7.3 30.7°
Sets 10:36:06 0° 24° (NNE) 3,387 8.0 30.9°
